Location: *
(2.7500°S, 66.6833°W)
Time: 04:47:06
(UTC+00:00)

PAYLOAD A - Pass Details

Date: 24 May 2024
Orbit: 654 x 36007 km, 7.5° (Epoch: 23 June)

Event Time Altitude Azimuth Distance (km) Brightness Sun altitude
Rises 23:26:12 0° 260° (W) 3,473 8.0 -15.6°
Reaches altitude 10° 23:28:48 10° 254° (WSW) 2,155 6.6 -16.2°
Maximum altitude 23:32:32 48° 177° (S) 871 3.6 -17.0°
Enters shadow 23:34:18 30° 119° (ESE) 1,339 4.2 -17.5°
